Flag for U.S.A. Weather past 2 weeks in Livonia, Michigan, U.S.A.

Now
25 °F

Broken clouds.


Feels Like: 17 °F
Forecast: 18 / 38 °F
Wind: 7 mph from North

Location: Detroit Metropolitan Wayne County Airport

Current Time: Mar 27, 2015 at 8:34:12 PM

Latest Report: Mar 27, 2015 at 7:53 PM


Visibility: 10 mi

Pressure: 30.10 "Hg

Humidity: 38%

Dew point: 3 °F

Location of LivoniaLocation

Historic Weather in Livonia — Graph

°F

Livonia temperature yesterday

Maximum temperature yesterday: 45 °F (at 4:53 PM)
Minimum temperature yesterday: 36 °F (at 11:53 PM)
Average temperature yesterday: 40 °F

Past Weeks' High & Low Weather Summary

 TemperatureHumidityPressure
High61 °F (Mar 16, 12:53 PM)97% (Mar 14, 6:53 AM)30.58 "Hg (Mar 14, 6:53 AM)
Low19 °F (Mar 24, 3:53 AM)21% (Mar 17, 1:53 PM)29.72 "Hg (Mar 16, 11:53 PM)
Average38 °F59%30.13 "Hg
* Reported Mar 12 6:53 PM — Mar 27 6:53 PM, Livonia, Weather by CustomWeather, © 2015

Note: Actual official high and low records may vary slightly from our data, if they occured in-between our weather recording intervals... More about our weather records

Advertising

Livonia weather history for previous 24 hours

 ConditionsComfort  
Time TempWeatherWind HumidityBarometerVisibility
6:53 PM
Fri, Mar 27
27 °FBroken clouds.8 mph45%30.09 "Hg10 mi
5:53 PM26 °FMostly cloudy.10 mph52%30.07 "Hg10 mi
4:53 PM27 °FMostly cloudy.13 mph55%30.06 "Hg10 mi
3:53 PM27 °FLight snow. Mostly cloudy.9 mph53%30.06 "Hg7 mi
2:53 PM27 °FLight snow. Mostly cloudy.10 mph55%30.06 "Hg6 mi
1:53 PM27 °FLight snow. Mostly cloudy.13 mph55%30.05 "Hg7 mi
12:53 PM26 °FLight snow. Cloudy.14 mph57%30.04 "Hg4 mi
11:53 AM27 °FLight snow. Mostly cloudy.10 mph58%30.04 "Hg9 mi
11:00 AM27 °FLight snow. Mostly cloudy.14 mph54%30.02 "Hg9 mi
9:53 AM26 °FLight snow. Overcast.15 mph57%30.03 "Hg9 mi
8:53 AM24 °FLight snow. Partly sunny.14 mph62%30.02 "Hg10 mi
7:53 AM23 °FLight snow. Overcast.12 mph63%30.02 "Hg7 mi
6:53 AM24 °FLight snow. Overcast.15 mph62%30.01 "Hg8 mi
5:53 AM25 °FOvercast.14 mph60%30.00 "Hg10 mi
4:53 AM27 °FMostly cloudy.14 mph63%29.99 "Hg10 mi
3:53 AM31 °FOvercast.10 mph61%29.97 "Hg10 mi
2:53 AM31 °FLight snow. Overcast.13 mph61%29.96 "Hg9 mi
2:00 AM34 °FLight snow. Overcast.14 mph65%29.94 "Hg9 mi
1:53 AM34 °FLight snow. Mostly cloudy.13 mph61%29.96 "Hg8 mi
12:53 AM35 °FLight snow. Mostly cloudy.10 mph64%29.96 "Hg8 mi
11:53 PM
Thu, Mar 26
36 °FMostly cloudy.10 mph59%29.95 "Hg10 mi
10:53 PM37 °FOvercast.10 mph60%29.94 "Hg10 mi
9:53 PM38 °FOvercast.12 mph58%29.94 "Hg10 mi
8:53 PM39 °FOvercast.8 mph55%29.93 "Hg10 mi
Weather by CustomWeather, © 2015

See weather overviewHow to use our weather pages